This demonstration page uses our WeatherBlox Daily Observations layout. Learn more.

Left ArrowRight Arrow

39.92423, -83.80882

Hourly Observations for August 10, 2021

Temp ( °F °C ) Dew Point ( °F °C ) Humidity (%) Winds ( mph kmh ) Pressure ( in mb ) Visibility ( mi km ) Precip ( " mm )
12:56 am 00:56 Clear 70 21 N/A N/A SSW 6 9 30.03 1017 10 16 0.01 0.25
1:56 am 01:56 Mostly Clear 70 21 N/A N/A SSW 8 13 30.03 1017 10 16 0.00 0.00
2:56 am 02:56 Mostly Cloudy 70 21 N/A N/A SSW 8 13 30.03 1017 10 16 0.01 0.25
3:56 am 03:56 Mostly Clear 72 22 N/A N/A SSW 8 13 30.02 1017 10 16 0.00 0.00
4:56 am 04:56 Clear 72 22 N/A N/A SW 10 17 30.04 1017 10 16 0.01 0.25
5:56 am 05:56 Clear 72 22 N/A N/A SW 10 17 30.02 1017 10 16 0.00 0.00
6:56 am 06:56 Mostly Cloudy 72 22 N/A N/A SSW 9 15 30.03 1017 10 16 0.01 0.25
7:56 am 07:56 Mostly Sunny 72 22 N/A N/A SW 9 15 30.04 1017 10 16 0.00 0.00
8:30 am 08:30 Partly Cloudy with Nearby Thunderstorms 75 24 N/A N/A SW 12 19 30.01 1016 10 16 0.00 0.00
8:47 am 08:47 Mostly Sunny 75 24 N/A N/A SW 12 19 30.01 1016 10 16 0.00 0.00
8:56 am 08:56 Sunny 75 24 N/A N/A SSW 7 11 30.03 1017 10 16 0.00 0.00
9:56 am 09:56 Sunny 78 25.6 78 25.6 100 100 SW 16 26 30.04 1017 10 16 0.01 0.25
10:56 am 10:56 Mostly Cloudy 81 27.2 78 25.6 91 91 SW 12 19 30.05 1018 10 16 0.00 0.00
11:56 am 11:56 Mostly Sunny 78 25.6 76 24.4 93 93 SW 14 22 30.06 1018 10 16 0.00 0.00
12:56 pm 12:56 Mostly Sunny 80 26.7 78 25.6 94 94 SW 12 19 30.03 1017 10 16 0.00 0.00
1:20 pm 13:20 Mostly Cloudy 81 27 79 26 94 94 SW 16 26 29.99 1015 10 16 0.00 0.00
1:56 pm 13:56 Mostly Cloudy 81 27.2 81 27.2 100 100 SW 12 19 30.02 1017 10 16 0.00 0.00
2:49 pm 14:49 Partly Cloudy 82 28 81 27 94 94 SSW 7 11 29.98 1015 10 16 0.00 0.00
2:56 pm 14:56 Mostly Sunny 84 28.9 81 27.2 91 91 SSW 7 11 30.01 1016 10 16 0.00 0.00
3:56 pm 15:56 Mostly Cloudy 83 28.3 80 26.7 91 91 S 8 13 30.01 1016 10 16 0.00 0.00
4:56 pm 16:56 Cloudy 84 28.9 82 27.8 94 94 SSW 5 7 30.02 1017 10 16 0.00 0.00
5:47 pm 17:47 Partly Cloudy with Nearby Thunderstorms 82 28 81 27 94 94 SSW 10 17 29.97 1015 10 16 0.00 0.00
5:56 pm 17:56 Partly Cloudy with Nearby Thunderstorms 83 28.3 81 27.2 94 94 SSW 7 11 30.01 1016 10 16 0.00 0.00
6:17 pm 18:17 Mostly Sunny 82 28 81 27 94 94 SSW 7 11 29.96 1015 10 16 0.00 0.00
6:56 pm 18:56 Sunny 83 28.3 80 26.7 91 91 SSW 6 9 29.98 1015 10 16 0.00 0.00
7:56 pm 19:56 Sunny 81 27.2 81 27.2 100 100 SSW 3 6 29.99 1016 10 16 0.00 0.00
8:56 pm 20:56 Clear 79 26 N/A N/A SSW 7 11 29.98 1015 10 16 0.00 0.00
9:56 pm 21:56 Clear 77 25 N/A N/A S 6 9 30.00 1016 10 16 0.00 0.00
10:56 pm 22:56 Clear 75 24 N/A N/A SSW 5 7 30.01 1016 10 16 0.00 0.00
11:56 pm 23:56 Clear 75 24 N/A N/A S 7 11 30.01 1016 10 16 0.00 0.00

Powered by AerisWeather